This demonstration page uses our WeatherBlox Daily Observations layout. Learn more.

Left ArrowRight Arrow

41.55636, -103.73856

Hourly Observations for August 20, 2022

Temp ( °F °C ) Dew Point ( °F °C ) Humidity (%) Winds ( mph kmh ) Pressure ( in mb ) Visibility ( mi km ) Precip ( " mm )
12:58 am 00:58 Mostly Clear 60 15.6 39 3.7 45 45 SSE 8 13 30.00 1016 10 16 0.00 0.00
1:58 am 01:58 Clear 60 15.6 39 3.7 45 45 SSW 5 7 30.00 1016 10 16 0.00 0.00
2:58 am 02:58 Partly Cloudy 60 15.3 39 4 47 47 SSE 5 7 30.00 1016 10 16 0.00 0.00
3:58 am 03:58 Mostly Clear 56 13.2 39 4.1 54 54 E 3 6 30.00 1016 10 16 0.00 0.00
4:58 am 04:58 Cloudy 55 12.5 40 4.2 57 57 SW 5 7 30.01 1016 10 16 0.00 0.00
5:58 am 05:58 Clear 52 11.2 39 3.7 60 60 Calm 30.03 1017 10 16 0.00 0.00
6:58 am 06:58 Sunny 54 12.4 40 4.4 58 58 SW 3 6 30.05 1018 10 16 0.00 0.00
7:58 am 07:58 Sunny 65 18.3 41 5.2 42 42 SSE 3 6 30.05 1018 10 16 0.00 0.00
8:58 am 08:58 Sunny 69 20.8 41 5.2 36 36 SE 9 15 30.05 1018 10 16 0.00 0.00
9:58 am 09:58 Mostly Sunny 74 23.5 40 4.4 29 29 SSW 12 19 30.04 1017 10 16 0.00 0.00
10:58 am 10:58 Sunny 77 25 39 4.1 26 26 S 13 20 30.03 1017 10 16 0.00 0.00
11:58 am 11:58 Sunny 80 26.5 40 4.3 24 24 S 10 17 30.00 1016 10 16 0.00 0.00
12:58 pm 12:58 Sunny 82 27.5 40 4.5 23 23 SSW 15 24 29.98 1015 10 16 0.00 0.00
1:58 pm 13:58 Sunny 83 28.3 41 5.2 23 23 SW 16 26 29.97 1015 10 16 0.00 0.00
2:58 pm 14:58 Mostly Cloudy 84 28.8 43 6.2 24 24 SSW 12 19 29.95 1014 10 16 0.00 0.00
3:58 pm 15:58 Mostly Cloudy 83 28.5 43 5.9 24 24 SSW 16 26 29.94 1014 10 16 0.00 0.00
4:58 pm 16:58 Sunny 82 27.6 44 6.4 26 26 SSW 15 24 29.95 1014 10 16 0.00 0.00
5:58 pm 17:58 Sunny with Nearby Thunderstorms 81 27.2 44 6.6 27 27 S 15 24 29.95 1014 10 16 0.00 0.00
6:58 pm 18:58 Sunny 78 25.4 44 6.6 30 30 S 14 22 29.95 1014 10 16 0.00 0.00
7:58 pm 19:58 Clear 76 24.3 44 6.5 32 32 S 13 20 29.94 1014 10 16 0.00 0.00
8:58 pm 20:58 Clear 74 23.4 43 6.2 33 33 S 17 28 29.95 1014 10 16 0.00 0.00
9:58 pm 21:58 Clear 72 22 44 6.6 37 37 S 14 22 29.95 1014 10 16 0.00 0.00
10:58 pm 22:58 Clear 70 21.2 44 6.7 39 39 S 17 28 29.95 1014 10 16 0.00 0.00
11:58 pm 23:58 Clear 69 20.3 45 7 42 42 S 21 33 29.95 1014 10 16 0.00 0.00

Powered by AerisWeather